Regional Weather Roundup
Issued by NWS Wakefield, VA

Home | Current Version | Previous Version | Text Only | Print | Product List | Glossary Off
Versions: 1 2 3 4 5 6 7 8 9 10 11 12 13 14 15 16 17 18 19 20 21 22 23 24 25 26 27

000
ASUS41 KAKQ 310415
RWRAKQ

REGIONAL WEATHER ROUNDUP
NATIONAL WEATHER SERVICE WAKEFIELD VA
1200 AM EDT TUE MAY 31 2016

Note: "fair" indicates few or no clouds below 12,000 feet with no
significant weather and/or obstructions to visibility. * = Denotes
station may not report precipitation (e.g., rain,snow,etc.),
thunder or fog.

VAZ042-051-052>054-056-310500-
NORTHERN VIRGINIA

CITY           SKY/WX    TMP DP  RH WIND       PRES   REMARKS
WASH NATIONAL  MOCLDY    72  68  87 S8        29.97F
DULLES         FAIR      70  68  93 S7        29.98S
FORT BELVOIR   NOT AVBL
QUANTICO       FAIR      71  67  87 S9        29.98F
FREDERICKSBRG* FAIR      67  67 100 CALM      29.97F
STAFFORD*      FAIR      65  64  94 CALM      30.02S
WARRENTON      FAIR      69  64  84 CALM      29.97F
CULPEPER*      CLOUDY    70  70  99 CALM      29.99S
MANASSAS*      FAIR      68  68 100 CALM      29.98S
LEESBURG*      CLOUDY    73  73 100 S8        29.99S
WINCHESTER     MOCLDY    66  64  94 CALM      29.99S
FRONT ROYAL*   FAIR      66  66 100 S5        29.98F
LURAY*         CLOUDY    66  66 100 CALM      30.00F
$$

VAZ048-049-060>072-079>083-310500-
CENTRAL AND SOUTH CENTRAL VIRGINIA

CITY           SKY/WX    TMP DP  RH WIND       PRES   REMARKS
RICHMOND       MOCLDY    67  66  97 SE3       29.98S
CHESTERFIELD*    N/A    N/A N/A N/A MISG        N/A
PETERSBURG*    CLOUDY    69  69 100 CALM      29.98S
HANOVER        CLOUDY    67  65  93 CALM      29.99F FOG
TAPPAHANNOCK*  FAIR      67  67 100 CALM      29.98F
QUINTON*       FOG       65  65 100 CALM      29.97F VSB 3/4
CHARLOTTSVILLE LGT RAIN  68  65  90 NW3       29.98F FOG
GORDONSVILLE*  CLOUDY    68  68 100 SE5       29.98S
ORANGE*        FAIR      70  70 100 CALM      30.00S
LOUISA*          N/A     68  66  94 CALM      29.98S FOG
BUMPASS*       FAIR      66  66 100 CALM      29.99S
FARMVILLE*     FAIR      68  68 100 CALM      29.97S
CREWE*         CLOUDY    65  65 100 CALM      29.98S
FORT PICKETT*  NOT AVBL
CHASE CITY*    CLOUDY    69  68  95 CALM      29.97F
CLARKSVILLE*   MOCLDY    70  70 100 E3        29.97S
SOUTH HILL*    CLOUDY    68  68  99 CALM      30.03S
LAWRENCEVILLE* CLOUDY    69  69 100 CALM      29.97F
EMPORIA*         N/A     68  68 100 CALM      29.98S
$$

VAZ088>098-310500-
SOUTHEAST VIRGINIA

CITY           SKY/WX    TMP DP  RH WIND       PRES   REMARKS
NORFOLK        FAIR      70  68  93 NE3       29.95S
VIRGINIA BEACH CLOUDY    74  67  78 E3        29.95R
NORFOLK NAVAL  MOCLDY    70  68  93 CALM      29.97S
WEST POINT*    FAIR      65  65  97 CALM      29.98F
SALUDA*        CLOUDY    69  69 100 CALM      29.97S
NEWPORT NEWS   CLOUDY    69  69 100 CALM      29.96S
LANGLEY AFB    NOT AVBL
FORT EUSTIS    NOT AVBL
WILLIAMSBURG*  CLOUDY    70  70 100 CALM      29.98S
HR EXEC AP*    MOCLDY    70  64  83 CALM      29.97S
FRANKLIN*      CLOUDY    68  67  98 CALM      29.97R
US460-WAKEFLD  CLOUDY    70  67  90 CALM      29.97S
$$

VAZ020-022-025-037-045-310500-
WEST CENTRAL AND SOUTHWEST VIRGINIA

CITY           SKY/WX    TMP DP  RH WIND       PRES   REMARKS
STAUNTON*      CLOUDY    65  63  90 CALM      30.03F
WAYNESBORO*    CLOUDY    69  59  70 N5        30.03S
HOT SPRINGS VA FAIR      64  58  79 N5        30.10F
LYNCHBURG      MOCLDY    71  69  93 SW3       30.01S
DANVILLE       FAIR      69  67  93 NE3       29.97F
SOUTH BOSTON*  FAIR      69  67  95 CALM      29.97S
MARTINSVILLE   CLOUDY    66  65  96 CALM      30.02R
ROANOKE        MOCLDY    70  65  84 CALM      30.02F
BLACKSBURG     CLOUDY    65  64  97 CALM      30.07F
DUBLIN*        CLOUDY    67  66  96 W5        30.06F
MARION*        MOCLDY    64  63  94 CALM      30.10S
HILLSVILLE*    DRIZZLE   64  62  93 CALM      30.06F
RICHLANDS*     FAIR      68  51  53 CALM      30.08S
WISE*          FAIR      66  54  63 CALM      30.10S
ABINGDON*      FAIR      66  62  86 CALM      30.05F
$$

MDZ021>025-VAZ099-100-310500-
SOUTHERN MARYLAND AND THE DELMARVA PENINSULA

CITY           SKY/WX    TMP DP  RH WIND       PRES   REMARKS
PATUXENT RIVER MOCLDY    67  65  93 CALM      29.97F
BAY BRIDGE APT PTCLDY    70  66  88 S6        29.97F
LEONARDTOWN    CLOUDY    66  64  94 CALM      29.99F
DOVER          NOT AVBL
GEORGETOWN     MOCLDY    68  67  96 NW6       29.99S
EASTON         CLOUDY    70  70 100 SE3       30.01F
CAMBRIDGE        N/A     64  64 100 CALM      29.97F
SALISBURY      CLOUDY    67  65  93 CALM      29.98F
OCEAN CITY     CLOUDY    67  66  97 VRB3      29.97F
WALLOPS ISLAND CLOUDY    67  66  97 E7        29.97F
ACCOMACK*      CLOUDY    66  64  94 CALM      29.96F
$$

NCZ012>017-030>032-310500-
NORTH CENTRAL AND EASTERN NORTH CAROLINA

CITY           SKY/WX    TMP DP  RH WIND       PRES   REMARKS
ROANOKE RAPIDS FOG       68  68 100 CALM      29.96S VSB 1/4
RALEIGH        LGT RAIN  71  70  96 CALM      29.96S
ELIZABETH CITY CLOUDY    71  68  90 CALM      29.95F
AHOSKIE*       MOCLDY    70  69  97 CALM      29.96S
EDENTON*       DRIZZLE  N/A N/A N/A SE3       29.96S
CURRITUCK*     CLOUDY    70  70 100 CALM      29.96S
KILL DEVIL HLS FOG       68  68 100 CALM      29.94F VSB 1
MANTEO         NOT AVBL
CAPE HATTERAS  CLOUDY    72  70  93 NW3       29.94F
TARBORO*       MOCLDY    71  70  95 CALM      29.96S
GOLDSBORO      NOT AVBL
WASHINGTON     CLOUDY    69  68  98 CALM      29.94F
GREENVILLE     PTCLDY    72  70  94 CALM      29.97S
NEW BERN       MOCLDY    72  70  93 NE5       29.94F
WILMINGTON     MOCLDY    72  70  93 E6        29.91F
$$

VAZ048-310500-
ELSEWHERE

CITY           SKY/WX    TMP DP  RH WIND       PRES   REMARKS
HARRISBURG PA  PTCLDY    69  65  86 NW6       29.95F
BALTIMORE      CLOUDY    72  68  87 SW5       29.97F
ANNAPOLIS      CLOUDY    69  68  96 S5        29.97F
ANDREWS AFB    FAIR      68  66  94 S3        29.97F
PHILADELPHIA   CLOUDY    71  67  87 S10       29.98S
HENDERSON NC   MOCLDY    67  67  97 CALM      29.97F
GREENSBORO     CLOUDY    72  67  84 SE5       29.97S
ROCKY MOUNT    CLOUDY    71  70  96 CALM      29.95F
$$

VAZ100-310500-
MARINE

STATION/POSITION TIME  TEMP    WIND        PRES    WAVE   SWELL
                       AIR SEA DIR/SP/G            HT/PER HT/PER
                 (UTC) (F)     (DEG/KT/KT) (MB)    (FT/S) (FT/S)
BRANDYWINE LGT   0300   67                   N/A
CAPE MAY NJ      0300      68                N/A
LEWES DE         0300      62                N/A
15NM E FENWICK I 0350   65 64              1015.3F   4/ 7
OCEAN-CITY-INLET 0300      65                N/A
WACHAPREAGUE VA  0300      76                N/A
THOMAS POINT MD  0400   69 69  170/  8/  8 1016.1F
GOOSES REEF MD   0300   69 69  200/  4/  6 1016.4F   1
COVE POINT MD    0300   68                   N/A
SOLOMONS ISLAND  0300      68                N/A
BISHOPS HEAD MD  0300      73                N/A
PINEY POINT MD   0300           CALM  /  1   N/A
POTOMAC MD       0300   69 71  180/  2/  2 1014.2F   1
CAMBRIDGE MD     0300      70                N/A
LEWISETTA VA     0300      71                N/A
RAPPAHANNOCK LGT 0300          100/  9/ 10 1015.5F
STINGRAY PT      0300   69 69  130/ 10/ 12 1015.0F   1
YORK RVR RNG VA  0300   70                   N/A
YORKTOWN VA      0300      69                N/A
JAMESTOWN VA     0300   70 75   80/  2/  4   N/A     0
DOMINION TERM VA 0300   70                   N/A
KIPTOPEKE VA     0300      69                N/A
CHES BAY BRIDGE  0300      69                N/A
CAPE HENRY VA    0300   69                   N/A
CHESAPEAKE LGHT  0300   69     110/  8/  9 1015.2F
WILLOUBY STN VA  0300   70                   N/A
CAPE HENRY BUOY  0312      69                N/A     4/ 8
1ST LANDING BUOY 0300   69 68   90/  4/  6 1014.6F   1/ 5
CAPE CHARLES BUO 0326      69                N/A     3/ 8   3/ 8
OFFSHORE WE BUOY 0321      70                N/A     5/ 7   5/ 7
64NM E OF VA BCH 0350   67 64   50/ 10/ 10 1014.3F   5/ 7   5/ 7
DUCK PIER NC     0300      59                N/A
44100 DUCK FRF   0324      67                N/A     5/ 8
44056 DUCK FRF   0311      61                N/A     3/ 6
OREGON INLET NC  0300      73                N/A
HATTERAS NC      0300      74                N/A
DIAMOND SHLS NC  0350   77 80  230/ 12/ 14 1013.7F   5/ 7   5/ 7
CAPE LOOKOUT NC  0400   75     120/  5/  5 1013C1F1C2F2C3F3C4F4C5F5C6F6C7F7C8M1C9!



USA.gov is the U.S. government's official web portal to all federal, state and local government web resources and services.